Zurück zum Katalog

QIANFAN-170

AktivKommunikationPO
NORAD 69387·PAYLOAD·🇨🇳 China

Gestartet Jun 4, 2026 von Taiyuan Satellite Launch Center

Loading…

Nächste Überflüge (nächste 24 Stunden)

TLE

AktuellSource: Space-Track

Epoche: Sep 14, 2026, 22:03 UTC

1 69387U 26124F   26257.91912721  .00000143  00000-0  20332-3 0  9993
2 69387  89.0077 352.5513 0001844  96.6075 263.5286 13.51025135 14171

Verfolge QIANFAN-170 in Echtzeit mit AllMySat

Download on the App Store